Tracking 19794 objects as of 21-Jul-2019
HD Live streaming from Space Station
objects crossing your sky now

CATSAT-2

Track CATSAT-2 now!
10-day predictions


NORAD ID: 44029
Int'l Code: 1998-067PV
Perigee: 401.0 km
Apogee: 406.9 km
Inclination: 51.6 °
Period: 92.5 minutes
Semi major axis: 6774 km
RCS: Unknown
Launch date: November 20, 1998
Source: United States (US)
Launch site: TYURATAM MISSILE AND SPACE COMPLEX (TTMTR)
aabbcc
Your satellite tracking list
Your tracking list is empty




NASA's NSSDC Master Catalog

Two Line Element Set (TLE):
1 44029U 98067PV  19201.83888095 +.00003892 +00000-0 +59990-4 0  9999
2 44029 051.6385 190.2717 0004367 272.5786 087.4705 15.56827105026585
Source of the keplerian elements: AFSPC